Location: Pescara
(42.4670°N, 14.2170°E)
Time: 18:05:45
(UTC+02:00)

ISS - Pass Details

Date: 16 May 2021
Orbit: 417 x 422 km, 51.6° (Epoch: 18 June)

Event Time Altitude Azimuth Distance (km) Brightness Sun altitude
Rises 02:52:30 0° 306° (NW) 2,374 0.2 -23.1°
Reaches altitude 10° 02:54:43 10° 315° (NW) 1,508 -0.8 -22.9°
Maximum altitude 02:57:53 37° 25° (NNE) 678 -2.2 -22.6°
Drops below altitude 10° 03:01:03 10° 94° (E) 1,505 -0.6 -22.3°
Sets 03:03:15 0° 103° (ESE) 2,367 0.3 -22.1°
